• Join FlightAware (Why Join?)
  • Login
  • US Flag GB Flag 
06:47 EDT


 

Airport Tracker/Info


-or-


 

Live Flight TrackerFlight Track Log ✈ N960DL ✈ 03-May-2013 ✈ KATL - KPNS

Flight Track Log - Related Links

Times and Time Zones

All times are in EDT time to prevent confusion due to time zone crossing. See the N960DL flight status page for this flight to view local times or setup timezone preferences in your user account.

Time Position Orientation Groundspeed Altitude Reporting Facility
EDT Latitude Longitude Course Direction KTS MPH feet Rate Location/Type
11:10 33.6247 -84.3606 203° Southwest 446 513 3,200  Level Atlanta Center
11:11 33.6000 -84.2908 113° Southeast 320 368 6,100 2,640 Climbing Atlanta Center
11:12 33.2830 -84.3468 202° Southwest  Level FlightAware Approximate
11:12 33.5331 -84.2806 173° South 268 308 8,500  Level Atlanta Center
11:13 33.1753 -84.3982 202° Southwest  Level FlightAware Approximate
11:13 33.4622 -84.2828 181° South 291 335 9,900  Level Atlanta Center
11:14 33.0675 -84.4496 202° Southwest  Level FlightAware Approximate
11:14 33.3806 -84.3125 197° South 307 353 11,900  Level Atlanta Center
11:15 32.9592 -84.4954 203° Southwest  Level FlightAware Approximate
11:15 33.2928 -84.3544 202° Southwest 334 384 13,400  Level Atlanta Center
11:16 33.1906 -84.4014 201° Southwest 377 434 15,000 2,040 Climbing Atlanta Center
11:17 33.0733 -84.4578 202° Southwest 405 466 17,500 2,220 Climbing Atlanta Center
11:18 32.9625 -84.5067 200° South 418 481 19,500 1,800 Climbing Atlanta Center
11:19 32.8456 -84.5358 192° South 429 494 21,100 1,800 Climbing Atlanta Center
11:20 32.7511 -84.6367 222° Southwest 434 499 23,200 2,100 Climbing Atlanta Center
11:21 32.6608 -84.7347 222° Southwest 440 506 25,400 1,380 Climbing Atlanta Center
11:22 32.5875 -84.8131 222° Southwest 440 506 26,000 300 Climbing Atlanta Center
11:23 32.4822 -84.9228 221° Southwest 432 497 26,000  Level Atlanta Center
11:24 32.3961 -85.0178 223° Southwest 437 503 26,000  Level Atlanta Center
11:25 32.3075 -85.1153 223° Southwest 437 503 26,000  Level Atlanta Center
11:26 32.2169 -85.2100 222° Southwest 437 503 26,000  Level Atlanta Center
11:27 32.1283 -85.3069 223° Southwest 437 503 26,000  Level Atlanta Center
11:29 31.9669 -85.4786 222° Southwest 434 499 26,000  Level Jacksonville Center
11:30 31.8772 -85.5739 222° Southwest 434 499 26,000  Level Jacksonville Center
11:31 31.7811 -85.6786 223° Southwest 434 499 26,000  Level Jacksonville Center
11:32 31.6911 -85.7711 221° Southwest 434 499 26,000 -660 Level Jacksonville Center
11:33 31.6033 -85.8661 223° Southwest 434 499 24,700 -1,020 Descending Jacksonville Center
11:34 31.5200 -85.9536 222° Southwest 418 481 24,000 -540 Descending Jacksonville Center
11:35 31.4364 -86.0433 222° Southwest 413 475 23,700 -900 Descending Jacksonville Center
11:36 31.3528 -86.1281 221° Southwest 408 470 22,300 -1,560 Descending Jacksonville Center
11:37 31.2692 -86.2175 222° Southwest 408 470 20,600 -2,400 Descending Jacksonville Center
11:38 31.1894 -86.3069 224° Southwest 403 464 17,600 -3,300 Descending Jacksonville Center
11:39 31.1056 -86.3936 222° Southwest 403 464 14,000 -3,180 Descending Jacksonville Center
11:40 31.0589 -86.4986 243° Southwest 386 444 11,300 -1,620 Descending Jacksonville Center
11:41 31.0267 -86.6017 250° West 380 437 11,000 -180 Descending Jacksonville Center
11:42 30.9856 -86.7211 248° West 381 438 11,000  Level Jacksonville Center
11:43 30.9489 -86.8286 248° West 311 358 11,000 -720 Level Jacksonville Center
11:44 30.8986 -86.8992 230° Southwest 292 336 9,600 -1,560 Descending Jacksonville Center
11:45 30.8361 -86.9642 222° Southwest 290 334 7,900 -1,680 Descending Jacksonville Center
11:46 30.7797 -87.0294 225° Southwest 284 327 6,300 -960 Descending Jacksonville Center
11:47 30.7378 -87.0953 233° Southwest 287 330 6,000 -780 Descending Jacksonville Center
11:48 30.6872 -87.1703 232° Southwest 233 268 4,800 -1,560 Descending Jacksonville Center
11:49 30.6439 -87.2214 225° Southwest 232 267 3,000 -1,800 Descending Jacksonville Center